Time,TemperatureF,DewpointF,PressureIn,WindDirection,WindDirectionDegrees,WindSpeedMPH,WindSpeedGustMPH,Humidity,HourlyPrecipIn,Conditions,Clouds,dailyrainin,SolarRadiationWatts/m^2,SoftwareType,DateUTC
2013-06-30 00:12:00,77.7,75.0,29.83,SSE,149,2.0,6.0,91,0.00,,,0.00,0,weatherlink.com 1.10,2013-06-30 04:12:00,
2013-06-30 00:27:00,77.4,75.0,29.83,SSE,163,9.0,9.0,91,0.00,,,0.00,0,weatherlink.com 1.10,2013-06-30 04:27:00,
2013-06-30 00:42:00,77.2,75.0,29.82,East,91,2.0,7.0,91,0.00,,,0.00,0,weatherlink.com 1.10,2013-06-30 04:42:00,
2013-06-30 00:58:00,77.1,74.0,29.82,SSW,201,2.0,13.0,91,0.00,,,0.00,0,weatherlink.com 1.10,2013-06-30 04:58:00,
2013-06-30 01:13:00,77.1,74.0,29.82,South,187,6.0,7.0,91,0.00,,,0.00,0,weatherlink.com 1.10,2013-06-30 05:13:00,
2013-06-30 01:28:00,77.0,75.0,29.82,South,170,4.0,7.0,92,0.00,,,0.00,0,weatherlink.com 1.10,2013-06-30 05:28:00,
2013-06-30 01:43:00,76.8,74.0,29.82,South,182,0.0,8.0,92,0.00,,,0.00,0,weatherlink.com 1.10,2013-06-30 05:43:00,
2013-06-30 01:58:00,76.7,74.0,29.82,South,183,2.0,10.0,92,0.00,,,0.00,0,weatherlink.com 1.10,2013-06-30 05:58:00,
2013-06-30 02:13:00,76.6,74.0,29.82,SW,217,1.0,6.0,92,0.00,,,0.00,0,weatherlink.com 1.10,2013-06-30 06:13:00,
2013-06-30 02:28:00,76.5,74.0,29.81,SSE,165,1.0,8.0,93,0.00,,,0.00,0,weatherlink.com 1.10,2013-06-30 06:28:00,
2013-06-30 02:43:00,76.4,74.0,29.81,South,172,2.0,7.0,93,0.00,,,0.00,0,weatherlink.com 1.10,2013-06-30 06:43:00,
2013-06-30 02:58:00,76.3,74.0,29.80,South,184,3.0,8.0,93,0.00,,,0.00,0,weatherlink.com 1.10,2013-06-30 06:58:00,
2013-06-30 03:13:00,76.3,74.0,29.80,SW,222,3.0,6.0,93,0.00,,,0.00,0,weatherlink.com 1.10,2013-06-30 07:13:00,
2013-06-30 03:28:00,76.2,74.0,29.80,SSW,211,2.0,8.0,93,0.00,,,0.00,0,weatherlink.com 1.10,2013-06-30 07:28:00,
2013-06-30 03:43:00,76.2,74.0,29.80,SSE,162,1.0,6.0,93,0.00,,,0.00,0,weatherlink.com 1.10,2013-06-30 07:43:00,
2013-06-30 03:58:00,76.2,74.0,29.80,SSW,196,2.0,6.0,93,0.00,,,0.00,0,weatherlink.com 1.10,2013-06-30 07:58:00,
2013-06-30 04:13:00,76.0,74.0,29.80,SW,218,3.0,8.0,93,0.00,,,0.00,0,weatherlink.com 1.10,2013-06-30 08:13:00,
2013-06-30 04:28:00,75.9,74.0,29.80,SSW,199,5.0,7.0,94,0.00,,,0.00,0,weatherlink.com 1.10,2013-06-30 08:28:00,
2013-06-30 04:43:00,75.9,74.0,29.80,SW,228,3.0,8.0,93,0.00,,,0.00,0,weatherlink.com 1.10,2013-06-30 08:43:00,
2013-06-30 04:58:00,76.0,74.0,29.80,SSE,167,0.0,6.0,94,0.00,,,0.00,0,weatherlink.com 1.10,2013-06-30 08:58:00,
2013-06-30 05:13:00,76.0,74.0,29.80,SSW,192,0.0,7.0,94,0.00,,,0.00,0,weatherlink.com 1.10,2013-06-30 09:13:00,
2013-06-30 05:28:00,76.0,74.0,29.81,SW,216,8.0,8.0,94,0.00,,,0.00,0,weatherlink.com 1.10,2013-06-30 09:28:00,
2013-06-30 05:43:00,75.9,74.0,29.81,SSW,206,3.0,8.0,94,0.00,,,0.00,0,weatherlink.com 1.10,2013-06-30 09:43:00,
2013-06-30 05:58:00,75.9,74.0,29.81,West,259,3.0,8.0,93,0.00,,,0.00,0,weatherlink.com 1.10,2013-06-30 09:58:00,
2013-06-30 06:13:00,75.8,74.0,29.81,WSW,239,3.0,9.0,93,0.00,,,0.00,0,weatherlink.com 1.10,2013-06-30 10:13:00,
2013-06-30 06:28:00,75.9,74.0,29.82,South,185,6.0,12.0,93,0.00,,,0.00,0,weatherlink.com 1.10,2013-06-30 10:28:00,
2013-06-30 06:43:00,75.9,74.0,29.82,SSW,208,4.0,9.0,93,0.00,,,0.00,9,weatherlink.com 1.10,2013-06-30 10:43:00,
2013-06-30 06:58:00,75.8,74.0,29.82,SSW,204,2.0,10.0,93,0.00,,,0.00,16,weatherlink.com 1.10,2013-06-30 10:58:00,
2013-06-30 07:13:00,75.9,74.0,29.82,SW,226,4.0,11.0,93,0.00,,,0.00,28,weatherlink.com 1.10,2013-06-30 11:13:00,
2013-06-30 07:28:00,76.2,74.0,29.83,South,184,3.0,7.0,93,0.00,,,0.00,42,weatherlink.com 1.10,2013-06-30 11:28:00,
2013-06-30 07:43:00,76.6,74.0,29.83,SSE,153,9.0,10.0,92,0.00,,,0.00,49,weatherlink.com 1.10,2013-06-30 11:43:00,
2013-06-30 07:58:00,77.2,75.0,29.83,SSW,212,2.0,9.0,92,0.00,,,0.00,84,weatherlink.com 1.10,2013-06-30 11:58:00,
2013-06-30 08:13:00,77.7,75.0,29.84,WSW,240,3.0,10.0,91,0.00,,,0.00,248,weatherlink.com 1.10,2013-06-30 12:13:00,
2013-06-30 08:28:00,78.4,75.0,29.84,SW,219,2.0,10.0,90,0.00,,,0.00,195,weatherlink.com 1.10,2013-06-30 12:28:00,
2013-06-30 08:43:00,79.2,76.0,29.84,SSW,192,2.0,8.0,89,0.00,,,0.00,355,weatherlink.com 1.10,2013-06-30 12:43:00,
2013-06-30 08:58:00,80.3,76.0,29.84,SSW,196,0.0,8.0,87,0.00,,,0.00,417,weatherlink.com 1.10,2013-06-30 12:58:00,
2013-06-30 09:13:00,81.6,77.0,29.84,SSW,203,0.0,9.0,86,0.00,,,0.00,448,weatherlink.com 1.10,2013-06-30 13:13:00,
2013-06-30 09:28:00,82.7,77.0,29.84,SSW,192,7.0,9.0,83,0.00,,,0.00,169,weatherlink.com 1.10,2013-06-30 13:28:00,
2013-06-30 09:43:00,83.0,77.0,29.84,SW,228,7.0,10.0,81,0.00,,,0.00,661,weatherlink.com 1.10,2013-06-30 13:43:00,
2013-06-30 09:59:00,83.7,77.0,29.84,SSW,207,5.0,10.0,81,0.00,,,0.00,183,weatherlink.com 1.10,2013-06-30 13:59:00,
2013-06-30 10:14:00,83.3,77.0,29.84,SW,219,0.0,12.0,80,0.00,,,0.00,188,weatherlink.com 1.10,2013-06-30 14:14:00,
2013-06-30 10:29:00,83.9,78.0,29.84,SW,217,0.0,12.0,81,0.00,,,0.00,185,weatherlink.com 1.10,2013-06-30 14:29:00,
2013-06-30 10:44:00,83.8,78.0,29.84,SW,232,1.0,7.0,82,0.01,,,0.01,56,weatherlink.com 1.10,2013-06-30 14:44:00,
2013-06-30 10:59:00,82.2,78.0,29.83,ESE,122,1.0,7.0,87,0.02,,,0.02,800,weatherlink.com 1.10,2013-06-30 14:59:00,
2013-06-30 11:14:00,82.9,77.0,29.83,SW,228,3.0,7.0,83,0.02,,,0.02,195,weatherlink.com 1.10,2013-06-30 15:14:00,
2013-06-30 11:29:00,82.0,76.0,29.84,South,173,3.0,15.0,83,0.03,,,0.03,113,weatherlink.com 1.10,2013-06-30 15:29:00,
2013-06-30 11:44:00,78.5,75.0,29.83,SSW,194,2.0,11.0,88,0.07,,,0.08,118,weatherlink.com 1.10,2013-06-30 15:44:00,
2013-06-30 11:59:00,78.9,77.0,29.83,SSW,211,0.0,3.0,95,0.06,,,0.08,895,weatherlink.com 1.10,2013-06-30 15:59:00,
2013-06-30 12:14:00,81.8,79.0,29.83,SSW,212,4.0,5.0,90,0.06,,,0.08,909,weatherlink.com 1.10,2013-06-30 16:14:00,
2013-06-30 12:29:00,84.1,76.0,29.84,SSW,211,16.0,21.0,77,0.05,,,0.08,1067,weatherlink.com 1.10,2013-06-30 16:29:00,
2013-06-30 12:44:00,80.2,75.0,29.84,SW,218,4.0,7.0,83,0.00,,,0.08,181,weatherlink.com 1.10,2013-06-30 16:44:00,
2013-06-30 12:59:00,77.8,75.0,29.83,NW,306,2.0,5.0,91,0.05,,,0.13,373,weatherlink.com 1.10,2013-06-30 16:59:00,
2013-06-30 13:14:00,78.0,75.0,29.83,SW,227,7.0,15.0,91,0.05,,,0.13,216,weatherlink.com 1.10,2013-06-30 17:14:00,
2013-06-30 13:29:00,77.9,75.0,29.84,SW,228,4.0,12.0,89,0.05,,,0.13,125,weatherlink.com 1.10,2013-06-30 17:29:00,
2013-06-30 13:44:00,77.5,73.0,29.82,WSW,251,7.0,10.0,86,0.05,,,0.13,98,weatherlink.com 1.10,2013-06-30 17:44:00,
2013-06-30 13:59:00,76.9,73.0,29.83,WSW,239,8.0,11.0,86,0.00,,,0.13,195,weatherlink.com 1.10,2013-06-30 17:59:00,
2013-06-30 14:14:00,77.3,74.0,29.83,SSW,210,3.0,9.0,89,0.01,,,0.14,568,weatherlink.com 1.10,2013-06-30 18:14:00,
2013-06-30 14:29:00,79.4,76.0,29.82,SW,221,0.0,8.0,89,0.01,,,0.14,592,weatherlink.com 1.10,2013-06-30 18:29:00,
2013-06-30 14:44:00,81.0,76.0,29.82,SW,230,2.0,7.0,85,0.01,,,0.14,722,weatherlink.com 1.10,2013-06-30 18:44:00,
2013-06-30 14:59:00,83.1,77.0,29.82,WSW,242,6.0,9.0,81,0.01,,,0.14,693,weatherlink.com 1.10,2013-06-30 18:59:00,
2013-06-30 15:14:00,84.2,77.0,29.81,SW,234,2.0,15.0,78,0.00,,,0.14,218,weatherlink.com 1.10,2013-06-30 19:14:00,
2013-06-30 15:29:00,82.6,76.0,29.82,South,189,2.0,12.0,80,0.00,,,0.14,86,weatherlink.com 1.10,2013-06-30 19:29:00,
2013-06-30 15:44:00,81.4,75.0,29.83,South,188,3.0,9.0,82,0.00,,,0.14,76,weatherlink.com 1.10,2013-06-30 19:44:00,
2013-06-30 15:59:00,79.9,74.0,29.84,SSW,207,2.0,12.0,82,0.00,,,0.14,134,weatherlink.com 1.10,2013-06-30 19:59:00,
2013-06-30 16:14:00,80.0,75.0,29.84,SSE,155,2.0,7.0,84,0.00,,,0.14,262,weatherlink.com 1.10,2013-06-30 20:14:00,
2013-06-30 16:29:00,80.0,75.0,29.83,SE,140,3.0,5.0,84,0.00,,,0.14,172,weatherlink.com 1.10,2013-06-30 20:29:00,
2013-06-30 16:44:00,80.2,75.0,29.83,SSW,207,5.0,9.0,85,0.00,,,0.14,214,weatherlink.com 1.10,2013-06-30 20:44:00,
2013-06-30 16:59:00,80.0,75.0,29.83,SW,224,5.0,10.0,85,0.00,,,0.14,132,weatherlink.com 1.10,2013-06-30 20:59:00,
2013-06-30 17:14:00,79.5,75.0,29.84,South,182,1.0,9.0,85,0.00,,,0.14,113,weatherlink.com 1.10,2013-06-30 21:14:00,
2013-06-30 17:29:00,78.8,75.0,29.84,SSE,159,0.0,8.0,87,0.00,,,0.14,107,weatherlink.com 1.10,2013-06-30 21:29:00,
2013-06-30 17:44:00,78.6,75.0,29.84,SSW,200,4.0,10.0,87,0.00,,,0.14,62,weatherlink.com 1.10,2013-06-30 21:44:00,
2013-06-30 17:59:00,78.3,74.0,29.83,WSW,238,5.0,10.0,87,0.00,,,0.14,69,weatherlink.com 1.10,2013-06-30 21:59:00,
2013-06-30 18:14:00,78.2,75.0,29.84,SW,228,6.0,8.0,89,0.00,,,0.14,42,weatherlink.com 1.10,2013-06-30 22:14:00,
2013-06-30 18:29:00,78.0,74.0,29.83,WSW,240,2.0,9.0,88,0.00,,,0.14,33,weatherlink.com 1.10,2013-06-30 22:29:00,
2013-06-30 18:44:00,77.8,74.0,29.82,South,178,3.0,8.0,88,0.00,,,0.14,30,weatherlink.com 1.10,2013-06-30 22:44:00,
2013-06-30 18:59:00,77.8,74.0,29.81,SSW,197,1.0,8.0,89,0.00,,,0.14,47,weatherlink.com 1.10,2013-06-30 22:59:00,
2013-06-30 19:14:00,77.7,74.0,29.80,ESE,118,3.0,7.0,89,0.00,,,0.14,37,weatherlink.com 1.10,2013-06-30 23:14:00,
2013-06-30 19:29:00,77.4,74.0,29.81,SW,234,0.0,13.0,90,0.00,,,0.14,26,weatherlink.com 1.10,2013-06-30 23:29:00,
2013-06-30 19:44:00,77.2,75.0,29.82,South,170,3.0,10.0,91,0.00,,,0.14,21,weatherlink.com 1.10,2013-06-30 23:44:00,
2013-06-30 19:59:00,77.1,74.0,29.83,ESE,121,1.0,10.0,89,0.00,,,0.14,19,weatherlink.com 1.10,2013-06-30 23:59:00,
2013-06-30 20:14:00,77.0,74.0,29.84,South,186,1.0,9.0,90,0.00,,,0.14,14,weatherlink.com 1.10,2013-07-01 00:14:00,
2013-06-30 20:29:00,76.7,74.0,29.83,SW,218,1.0,8.0,91,0.00,,,0.14,0,weatherlink.com 1.10,2013-07-01 00:29:00,
2013-06-30 20:44:00,76.5,74.0,29.84,SSE,159,3.0,10.0,91,0.00,,,0.14,0,weatherlink.com 1.10,2013-07-01 00:44:00,
2013-06-30 20:59:00,76.3,74.0,29.84,SW,227,1.0,8.0,91,0.00,,,0.14,0,weatherlink.com 1.10,2013-07-01 00:59:00,
2013-06-30 21:14:00,76.2,74.0,29.84,ESE,118,5.0,9.0,91,0.00,,,0.14,0,weatherlink.com 1.10,2013-07-01 01:14:00,
2013-06-30 21:29:00,76.1,73.0,29.84,SSE,149,2.0,10.0,91,0.00,,,0.14,0,weatherlink.com 1.10,2013-07-01 01:29:00,
2013-06-30 21:44:00,76.0,74.0,29.84,South,169,0.0,6.0,92,0.00,,,0.14,0,weatherlink.com 1.10,2013-07-01 01:44:00,
2013-06-30 21:59:00,75.9,74.0,29.84,SW,215,5.0,8.0,93,0.00,,,0.14,0,weatherlink.com 1.10,2013-07-01 01:59:00,
2013-06-30 22:14:00,75.8,74.0,29.85,SSE,149,1.0,9.0,93,0.00,,,0.14,0,weatherlink.com 1.10,2013-07-01 02:14:00,
2013-06-30 22:29:00,76.0,74.0,29.87,SSW,213,3.0,14.0,93,0.00,,,0.14,0,weatherlink.com 1.10,2013-07-01 02:29:00,
2013-06-30 22:44:00,76.1,74.0,29.87,South,170,1.0,8.0,92,0.00,,,0.14,0,weatherlink.com 1.10,2013-07-01 02:44:00,
2013-06-30 22:59:00,76.2,74.0,29.86,SW,218,2.0,10.0,92,0.00,,,0.14,0,weatherlink.com 1.10,2013-07-01 02:59:00,
2013-06-30 23:14:00,76.4,74.0,29.86,SSE,165,9.0,9.0,92,0.00,,,0.14,0,weatherlink.com 1.10,2013-07-01 03:14:00,
2013-06-30 23:29:00,76.4,74.0,29.86,SSW,201,2.0,8.0,92,0.00,,,0.14,0,weatherlink.com 1.10,2013-07-01 03:29:00,
2013-06-30 23:44:00,76.2,74.0,29.86,South,173,7.0,7.0,92,0.00,,,0.14,0,weatherlink.com 1.10,2013-07-01 03:44:00,
2013-06-30 23:59:00,76.1,74.0,29.87,WSW,246,4.0,11.0,92,0.00,,,0.14,0,weatherlink.com 1.10,2013-07-01 03:59:00,